Weather History for Rome, GA

Change the Weather History Date:

Monday, April 1, 2013

  Actual Average Record
Temperature  
Mean Temperature 58 °F 56 °F  
Max Temperature 72 °F 69 °F 84 °F (2006)
Min Temperature 45 °F 44 °F 33 °F (2003)
Degree Days  
Heating Degree Days 6 9  
Month to date heating degree days 9  
Since 1 July heating degree days 3036  
Cooling Degree Days 0 0  
Month to date cooling degree days 0  
Year to date cooling degree days 4  
Growing Degree Days 8 (Base 50)    
Moisture  
Dew Point 49 °F    
Average Humidity 81    
Maximum Humidity 100    
Minimum Humidity 32    
Precipitation  
Precipitation 0.02 in 0.14 in 1.13 in (2005)
Month to date precipitation 0.14  
Year to date precipitation 14.78  
Sea Level Pressure  
Sea Level Pressure 29.94 in    
Wind  
Wind Speed 2 mph (NNW)    
Max Wind Speed 13 mph    
Max Gust Speed 22 mph    
Visibility 6 miles    
Events Fog , Rain    
T = Trace of Precipitation, MM = Missing Value Source: NWS Daily Summary

Daily Weather History Graph

Daily Weather History Graph

Search for Another Location

Airport:

Trip Planner

Search our weather history database for the weather conditions in past years. The results will help you decide how hot, cold, wet, or windy it might be!

Date:

Astronomy

Apr. 01, 2013 Rise Set
Actual Time 7:27 AM EDT 8:01 PM EDT
Civil Twilight 7:02 AM EDT 8:27 PM EDT
Nautical Twilight 6:32 AM EDT 8:56 PM EDT
Astronomical Twilight 6:02 AM EDT 9:27 PM EDT
Moon 12:58 AM EDT (4/1) 11:24 AM EDT (4/1)
Length of Visible Light 13h 24m
Length of Day
12h 34m
Waning Gibbous, 67% of the Moon is Illuminated
Apr 1
Waning Gibbous
Apr 3
Last Quarter
Apr 10
New
Apr 18
First Quarter
Apr 25
Full

Hourly Weather History & Observations

Time (EDT) Temp. Dew Point Humidity Pressure Visibility Wind Dir Wind Speed Gust Speed Precip Events Conditions
12:33 AM 57.2 °F 57.2 °F 100% 29.90 in 7.0 mi South 4.6 mph - 0.02 in Rain Light Rain
12:41 AM 57.2 °F 57.2 °F 100% 29.90 in 8.0 mi Calm Calm - 0.02 in Rain Light Rain
12:53 AM 57.9 °F 57.9 °F 100% 29.88 in 8.0 mi Calm Calm - 0.02 in Rain Light Rain
1:53 AM 57.9 °F 57.9 °F 100% 29.86 in 9.0 mi Calm Calm - 0.00 in   Overcast
2:53 AM 55.9 °F 55.9 °F 100% 29.87 in 2.5 mi Calm Calm - N/A   Mostly Cloudy
3:08 AM 55.4 °F 55.4 °F 100% 29.89 in 1.0 mi Calm Calm - N/A   Mostly Cloudy
3:13 AM 57.2 °F 55.4 °F 94% 29.89 in 3.0 mi Calm Calm - N/A   Scattered Clouds
3:27 AM 55.4 °F 55.4 °F 100% 29.89 in 1.8 mi West 3.5 mph - N/A   Scattered Clouds
3:49 AM 53.6 °F 53.6 °F 100% 29.89 in 0.5 mi Calm Calm - N/A Fog Fog
3:50 AM 54.0 °F 54.0 °F 100% 29.88 in 0.5 mi Calm Calm - N/A Fog Fog
4:00 AM 55.4 °F 55.4 °F 100% 29.89 in 2.0 mi Calm Calm - N/A   Mostly Cloudy
4:07 AM 55.4 °F 53.6 °F 94% 29.89 in 5.0 mi Calm Calm - N/A   Mostly Cloudy
4:31 AM 53.6 °F 53.6 °F 100% 29.89 in 2.5 mi NNW 3.5 mph - N/A   Mostly Cloudy
4:39 AM 53.6 °F 53.6 °F 100% 29.89 in 9.0 mi NNW 4.6 mph - N/A   Overcast
4:53 AM 54.0 °F 54.0 °F 100% 29.88 in 10.0 mi Calm Calm - N/A   Mostly Cloudy
5:47 AM 51.8 °F 51.8 °F 100% 29.90 in 1.8 mi Calm Calm - N/A   Clear
5:53 AM 50.0 °F 50.0 °F 100% 29.89 in 1.0 mi Calm Calm - N/A   Clear
6:19 AM 50.0 °F 50.0 °F 100% 29.91 in 0.5 mi Calm Calm - N/A Fog Fog
6:53 AM 50.0 °F 50.0 °F 100% 29.91 in 0.8 mi Calm Calm - N/A   Mist
6:57 AM 50.0 °F 50.0 °F 100% 29.93 in 1.2 mi Calm Calm - N/A   Partly Cloudy
7:06 AM 48.2 °F 48.2 °F 100% 29.94 in 0.8 mi Calm Calm - N/A   Mist
7:17 AM 46.4 °F 46.4 °F 100% 29.94 in 1.2 mi Calm Calm - N/A   Partly Cloudy
7:25 AM 46.4 °F 46.4 °F 100% 29.95 in 0.8 mi Calm Calm - N/A   Mist
7:36 AM 46.4 °F 46.4 °F 100% 29.95 in 0.2 mi Calm Calm - N/A Fog Fog
7:53 AM 45.0 °F 45.0 °F 100% 29.95 in 0.2 mi Calm Calm - N/A Fog Fog
8:15 AM 46.4 °F 46.4 °F 100% 29.97 in 0.2 mi Calm Calm - N/A Fog Fog
8:50 AM 51.8 °F 51.8 °F 100% 29.99 in 1.0 mi NNE 3.5 mph - N/A   Mist
8:51 AM 52.0 °F 52.0 °F 100% 29.98 in 1.2 mi NNE 3.5 mph - N/A   Mostly Cloudy
8:54 AM 51.8 °F 51.8 °F 100% 29.99 in 3.0 mi NE 3.5 mph - N/A   Mostly Cloudy
9:01 AM 51.8 °F 51.8 °F 100% 29.99 in 9.0 mi Variable 3.5 mph - N/A   Scattered Clouds
9:53 AM 57.0 °F 51.1 °F 81% 29.99 in 10.0 mi NNE 3.5 mph - N/A   Clear
10:53 AM 62.1 °F 46.9 °F 58% 30.01 in 10.0 mi NNW 4.6 mph - N/A   Clear
11:53 AM 64.9 °F 43.0 °F 45% 30.00 in 10.0 mi Variable 5.8 mph - N/A   Clear
12:53 PM 68.0 °F 39.9 °F 36% 30.00 in 10.0 mi North 10.4 mph - N/A   Clear
1:53 PM 68.0 °F 39.0 °F 35% 29.99 in 10.0 mi NNE 5.8 mph - N/A   Scattered Clouds
2:53 PM 70.0 °F 41.0 °F 35% 29.98 in 10.0 mi NNW 12.7 mph 18.4 mph N/A   Scattered Clouds
3:53 PM 70.0 °F 41.0 °F 35% 29.97 in 10.0 mi NNW 6.9 mph 16.1 mph N/A   Mostly Cloudy
4:53 PM 71.1 °F 42.1 °F 35% 29.97 in 10.0 mi West 11.5 mph 21.9 mph N/A   Mostly Cloudy
5:53 PM 69.1 °F 41.0 °F 36% 29.96 in 10.0 mi West 9.2 mph - N/A   Partly Cloudy
6:53 PM 69.1 °F 39.9 °F 35% 29.96 in 10.0 mi WNW 8.1 mph 17.3 mph N/A   Clear
7:53 PM 64.9 °F 42.1 °F 43% 29.98 in 10.0 mi NNW 9.2 mph - N/A   Clear
8:53 PM 62.1 °F 42.1 °F 48% 30.00 in 10.0 mi NW 5.8 mph - N/A   Clear
9:53 PM 59.0 °F 42.1 °F 53% 30.02 in 10.0 mi NNW 4.6 mph - N/A   Clear
10:53 PM 55.9 °F 43.0 °F 62% 30.04 in 10.0 mi Calm Calm - N/A   Clear
11:53 PM 55.0 °F 41.0 °F 59% 30.04 in 10.0 mi NNW 5.8 mph - N/A   Clear